This is the latest recevied weather packets stored in our database for station/object KC9MWQ-13. If no packets are shown the sender has not sent any weather packets the latest 10 day(s).
| Time | Temp. | Humidity | Pressure | Rain* | Wind** | Luminosity | Snow |
|---|---|---|---|---|---|---|---|
| 1777934779 | 22.22° C | 66% | 1003.7 hPa | 0 mm | - | 111 W/m² | - |
| 1777934475 | 22.78° C | 65% | 1003.8 hPa | 0 mm | - | 104 W/m² | - |
| 1777934172 | 22.78° C | 63% | 1003.9 hPa | 0 mm | - | 203 W/m² | - |
| 1777933868 | 22.78° C | 65% | 1004 hPa | 0 mm | - | 269 W/m² | - |
| 1777933565 | 21.67° C | 67% | 1004.2 hPa | 0 mm | - | 329 W/m² | - |
| 1777933262 | 22.22° C | 66% | 1004.1 hPa | 0 mm | - | 55 W/m² | - |
| 1777932959 | 22.78° C | 61% | 1004.1 hPa | 0 mm | - | 81 W/m² | - |
| 1777932655 | 22.78° C | 61% | 1004 hPa | 0 mm | - | 133 W/m² | - |
| 1777932352 | 22.78° C | 60% | 1004.1 hPa | 0 mm | - | 109 W/m² | - |
| 1777932049 | 23.33° C | 59% | 1004.2 hPa | 0 mm | - | 173 W/m² | - |
| 1777931746 | 23.33° C | 57% | 1004.1 hPa | 0 mm | - | 265 W/m² | - |
| 1777931443 | 23.33° C | 57% | 1004.2 hPa | 0 mm | - | 401 W/m² | - |
| 1777931139 | 22.22° C | 58% | 1004.4 hPa | 0 mm | - | 350 W/m² | - |
| 1777930836 | 22.22° C | 60% | 1004.2 hPa | 0 mm | - | 227 W/m² | - |
| 1777930532 | 22.22° C | 58% | 1004.6 hPa | 0 mm | - | 157 W/m² | - |
| 1777930229 | 23.33° C | 56% | 1004.5 hPa | 0 mm | - | 232 W/m² | - |
| 1777929925 | 23.33° C | 55% | 1004.4 hPa | 0 mm | - | 456 W/m² | - |
| 1777929623 | 23.33° C | 56% | 1004.3 hPa | 0 mm | - | 201 W/m² | - |
| 1777929320 | 23.89° C | 52% | 1004.4 hPa | 0 mm | - | 205 W/m² | - |
| 1777929017 | 23.89° C | 55% | 1004.1 hPa | 0 mm | - | 470 W/m² | - |
| 1777928714 | 23.89° C | 54% | 1004.3 hPa | 0 mm | - | 284 W/m² | - |
| 1777928410 | 23.89° C | 53% | 1004.4 hPa | 0 mm | - | 342 W/m² | - |
| 1777928108 | 24.44° C | 55% | 1004.3 hPa | 0 mm | - | 517 W/m² | - |
| 1777927806 | 24.44° C | 58% | 1004.5 hPa | 0 mm | - | 522 W/m² | - |
| 1777927504 | 23.89° C | 54% | 1004.2 hPa | 0 mm | - | 544 W/m² | - |
* Rain latest hour (hover to see other rain measurements)
** Current wind speed in m/s (hover to see current wind gust speed)